Powrót do katalogu

STARLINK-3552

AktywnyŁącznośćVLEO
NORAD 51813·PAYLOAD·🇺🇸 United States

Wystrzelony Feb 25, 2022 z Vandenberg Space Force Base

Loading…

Następne Przeloty (najbliższe 24 godziny)

TLE

ŚwieżeSource: CelesTrak SupGP

Epoka: Sep 14, 2026, 21:30 UTC

1 51813C 22017AX  26257.89631944 -.00013648  00000+0 -39041-3 0  2576
2 51813  53.1583 189.6493 0001282  96.9221 258.5499 15.35411118    10

Śledź STARLINK-3552 w czasie rzeczywistym z AllMySat

Download on the App Store